{"data":{"norad_id":57135,"epoch":"2026-09-20T23:37:59.965248Z","epoch_age_seconds":79063,"freshness":"FRESH","line1":"1 57135U 23090AL  26263.98472182  .00000719  00000+0  35637-4 0  9999","line2":"2 57135  43.0043 240.2163 0001090 291.6017  68.4718 15.27576924180226","mean_motion":15.27576924,"eccentricity":0.000109,"inclination_deg":43.0043,"raan_deg":240.2163,"arg_perigee_deg":291.6017,"mean_anomaly_deg":68.4718,"bstar":3.5637e-5,"rev_number":18022,"period_min":94.266938533565,"perigee_km":482.31043641726,"apogee_km":483.80617699412,"semimajor_km":6861.1953067057,"source":"CELESTRAK","updated_at":"2026-09-21T09:00:33.565092Z"}}